Weather History for KDRM - January, 2014

Change the Weather History Date:

Wednesday, January 29, 2014

  Actual Average (KCIU) Record (KCIU)
Temperature  
Mean Temperature 10 °F -  
Max Temperature 19 °F 24 °F 44 °F (1989)
Min Temperature 4 °F 4 °F -20 °F (1997)
Degree Days  
Heating Degree Days 55    
Moisture  
Dew Point 4 °F    
Average Humidity 75    
Maximum Humidity 82    
Minimum Humidity 62    
Precipitation  
Precipitation 0.00 in - - ()
Sea Level Pressure  
Sea Level Pressure 29.83 in    
Wind  
Wind Speed 10 mph (WSW)    
Max Wind Speed 14 mph    
Max Gust Speed 24 mph    
Visibility 7 miles    
Events Snow    
Averages and records for this station are not official NWS values.
T = Trace of Precipitation, MM = Missing Value Source: NWS Daily Summary

Daily Weather History Graph

Daily Weather History Graph

Search for Another Location

Airport or City:

Trip Planner

Search our weather history database for the weather conditions in past years. The results will help you decide how hot, cold, wet, or windy it might be!

Date:

Astronomy

Jan. 29, 2014 Rise Set
Actual Time 8:00 AM EST 5:36 PM EST
Civil Twilight 7:28 AM EST 6:08 PM EST
Nautical Twilight 6:52 AM EST 6:44 PM EST
Astronomical Twilight 6:17 AM EST 7:19 PM EST
Moon 6:37 AM EST (1/29) 4:34 PM EST (1/29)
Length of Visible Light 10h 39m
Length of Day
9h 35m
Waning Crescent, 2% of the Moon is Illuminated
Jan 29
Waning Crescent
Jan 30
New
Feb 6
First Quarter
Feb 14
Full
Feb 22
Last Quarter

Hourly Weather History & Observations

Time (EST) Temp. Windchill Dew Point Humidity Pressure Visibility Wind Dir Wind Speed Gust Speed Precip Events Conditions
12:17 AM 6.6 °F -8.0 °F 1.6 °F 80% 29.79 in 1.5 mi West 10.4 mph 20.7 mph N/A Snow Light Snow
12:37 AM 6.4 °F -6.3 °F 0.7 °F 77% 29.79 in 4.0 mi West 8.1 mph 21.9 mph N/A Snow Light Snow
12:57 AM 6.3 °F -5.4 °F 0.7 °F 78% 29.78 in 3.0 mi West 6.9 mph 24.2 mph N/A Snow Light Snow
1:17 AM 5.9 °F -10.5 °F 0.5 °F 78% 29.78 in 3.0 mi West 12.7 mph 20.7 mph N/A   Haze
1:37 AM 5.9 °F -11.2 °F 0.5 °F 78% 29.77 in 2.5 mi WSW 13.8 mph 18.4 mph N/A Snow Light Snow
1:57 AM 5.7 °F -7.2 °F -0.4 °F 76% 29.77 in 5.0 mi WSW 8.1 mph 19.6 mph N/A   Haze
2:17 AM 5.5 °F -10.9 °F -0.6 °F 76% 29.76 in 5.0 mi West 12.7 mph 21.9 mph N/A   Haze
2:37 AM 5.4 °F -10.4 °F -0.6 °F 76% 29.76 in 5.0 mi West 11.5 mph 20.7 mph N/A   Haze
2:57 AM 5.4 °F -9.6 °F -0.9 °F 75% 29.76 in 4.0 mi West 10.4 mph 17.3 mph N/A   Haze
3:17 AM 5.0 °F -10.8 °F -1.3 °F 75% 29.75 in 4.0 mi WSW 11.5 mph 21.9 mph N/A   Haze
3:37 AM 4.8 °F -9.3 °F -1.5 °F 75% 29.75 in 7.0 mi West 9.2 mph 18.4 mph N/A   Overcast
3:57 AM 4.6 °F -9.5 °F -1.3 °F 76% 29.75 in 5.0 mi WSW 9.2 mph 18.4 mph N/A   Haze
4:17 AM 4.8 °F -10.2 °F -1.3 °F 76% 29.74 in 5.0 mi West 10.4 mph 18.4 mph N/A   Haze
4:37 AM 5.0 °F -10.0 °F -1.3 °F 75% 29.73 in 5.0 mi West 10.4 mph 17.3 mph N/A   Haze
4:57 AM 4.8 °F -10.2 °F -1.3 °F 76% 29.74 in 4.0 mi WSW 10.4 mph 20.7 mph N/A   Haze
5:17 AM 4.8 °F -11.8 °F -0.8 °F 78% 29.73 in 3.0 mi WSW 12.7 mph 19.6 mph N/A Snow Light Snow
5:37 AM 5.0 °F -9.1 °F -0.6 °F 78% 29.74 in 4.0 mi WSW 9.2 mph 19.6 mph N/A Snow Light Snow
5:57 AM 5.0 °F -9.1 °F -0.0 °F 80% 29.74 in 2.0 mi WSW 9.2 mph - N/A Snow Light Snow
6:18 AM 5.0 °F -6.9 °F 0.5 °F 82% 29.74 in 1.5 mi West 6.9 mph 16.1 mph N/A Snow Light Snow
6:37 AM 5.4 °F -9.6 °F 0.5 °F 80% 29.75 in 4.0 mi WSW 10.4 mph 17.3 mph N/A Snow Light Snow
6:57 AM 5.5 °F -9.3 °F 0.3 °F 79% 29.75 in 5.0 mi WSW 10.4 mph 16.1 mph N/A   Haze
7:17 AM 5.4 °F -6.5 °F 0.3 °F 80% 29.75 in 2.5 mi WSW 6.9 mph 16.1 mph N/A Snow Light Snow
7:37 AM 5.2 °F -8.9 °F 0.1 °F 80% 29.76 in 3.0 mi West 9.2 mph - N/A Snow Light Snow
7:57 AM 5.4 °F -7.6 °F 0.5 °F 80% 29.76 in 1.8 mi West 8.1 mph 16.1 mph N/A Snow Light Snow
8:17 AM 5.5 °F -6.3 °F 0.5 °F 80% 29.76 in 1.8 mi West 6.9 mph 16.1 mph N/A Snow Light Snow
8:37 AM 5.9 °F -3.0 °F 0.5 °F 78% 29.77 in 5.0 mi West 4.6 mph - N/A   Haze
8:57 AM 6.3 °F -2.6 °F 0.7 °F 78% 29.78 in 7.0 mi West 4.6 mph - N/A   Overcast
9:17 AM 6.8 °F -3.5 °F 0.7 °F 76% 29.79 in 10.0 mi West 5.8 mph - N/A   Overcast
9:37 AM 6.8 °F -4.8 °F 0.9 °F 77% 29.80 in 10.0 mi WSW 6.9 mph - N/A   Overcast
9:57 AM 7.5 °F -5.0 °F 1.4 °F 76% 29.80 in 10.0 mi WSW 8.1 mph - N/A   Overcast
10:17 AM 7.7 °F -7.4 °F 1.4 °F 75% 29.81 in 10.0 mi West 11.5 mph 18.4 mph N/A   Overcast
10:37 AM 8.2 °F -4.1 °F 1.9 °F 76% 29.81 in 10.0 mi West 8.1 mph 16.1 mph N/A   Overcast
10:57 AM 8.6 °F 2.0 °F 2.1 °F 75% 29.82 in 10.0 mi West 3.5 mph - N/A   Overcast
11:17 AM 9.5 °F -1.5 °F 2.3 °F 73% 29.83 in 10.0 mi West 6.9 mph - N/A   Overcast
11:37 AM 10.0 °F 0.4 °F 2.3 °F 71% 29.83 in 10.0 mi West 5.8 mph - N/A   Overcast
11:57 AM 10.8 °F -2.0 °F 2.7 °F 70% 29.83 in 10.0 mi WSW 9.2 mph 16.1 mph N/A   Mostly Cloudy
12:17 PM 11.3 °F -2.2 °F 3.0 °F 69% 29.84 in 10.0 mi WSW 10.4 mph 16.1 mph N/A   Mostly Cloudy
12:37 PM 11.8 °F -1.5 °F 3.7 °F 70% 29.84 in 10.0 mi West 10.4 mph 16.1 mph N/A   Overcast
12:57 PM 11.8 °F -2.3 °F 3.2 °F 68% 29.84 in 7.0 mi West 11.5 mph 20.7 mph N/A   Overcast
1:17 PM 13.6 °F 1.6 °F 4.1 °F 66% 29.84 in 10.0 mi West 9.2 mph - N/A   Overcast
1:37 PM 14.2 °F 2.2 °F 4.1 °F 64% 29.84 in 7.0 mi West 9.2 mph 16.1 mph N/A   Mostly Cloudy
1:57 PM 14.0 °F -0.2 °F 4.6 °F 66% 29.86 in 10.0 mi WSW 12.7 mph 18.4 mph N/A   Scattered Clouds
2:17 PM 13.6 °F 6.0 °F 3.7 °F 65% 29.87 in 7.0 mi West 4.6 mph 18.4 mph N/A   Scattered Clouds
2:37 PM 14.0 °F -0.2 °F 3.2 °F 62% 29.87 in 7.0 mi WSW 12.7 mph 19.6 mph N/A   Clear
2:57 PM 13.8 °F 3.7 °F 3.9 °F 65% 29.87 in 7.0 mi WSW 6.9 mph 19.6 mph N/A   Clear
3:17 PM 14.0 °F 2.9 °F 5.0 °F 67% 29.87 in 7.0 mi WSW 8.1 mph 17.3 mph N/A   Clear
3:37 PM 14.0 °F 1.2 °F 6.3 °F 71% 29.88 in 7.0 mi WSW 10.4 mph 16.1 mph N/A   Clear
3:57 PM 13.6 °F 1.6 °F 6.6 °F 74% 29.89 in 10.0 mi WSW 9.2 mph 16.1 mph N/A   Clear
4:18 PM 13.3 °F -0.5 °F 6.3 °F 74% 29.90 in 10.0 mi WSW 11.5 mph 16.1 mph N/A   Scattered Clouds
4:37 PM 13.1 °F 0.9 °F 6.6 °F 75% 29.90 in 10.0 mi WSW 9.2 mph - N/A Snow Light Snow
4:57 PM 12.9 °F 2.6 °F 6.8 °F 77% 29.90 in 5.0 mi WSW 6.9 mph - N/A Snow Light Snow
5:17 PM 13.1 °F 2.8 °F 6.6 °F 75% 29.91 in 10.0 mi WSW 6.9 mph - N/A   Mostly Cloudy
5:37 PM 13.6 °F 2.5 °F 7.3 °F 76% 29.91 in 10.0 mi SW 8.1 mph - N/A Snow Light Snow
5:57 PM 14.0 °F 3.9 °F 7.7 °F 76% 29.92 in 10.0 mi SW 6.9 mph - N/A Snow Light Snow
6:17 PM 14.0 °F 2.9 °F 7.7 °F 76% 29.92 in 10.0 mi SW 8.1 mph - N/A Snow Light Snow
6:37 PM 14.4 °F 0.2 °F 8.4 °F 77% 29.93 in 10.0 mi SW 12.7 mph 20.7 mph N/A Snow Light Snow
6:57 PM 14.7 °F 2.1 °F 8.1 °F 75% 29.93 in 10.0 mi SSW 10.4 mph 20.7 mph N/A   Overcast
7:17 PM 14.7 °F 2.1 °F 7.7 °F 74% 29.93 in 10.0 mi SSW 10.4 mph - N/A   Overcast
7:37 PM 13.8 °F 2.7 °F 7.0 °F 74% 29.92 in 10.0 mi SSW 8.1 mph - N/A   Scattered Clouds
7:57 PM 14.7 °F 2.9 °F 8.1 °F 75% 29.92 in 10.0 mi SW 9.2 mph 16.1 mph N/A   Mostly Cloudy
8:17 PM 14.7 °F 2.9 °F 7.9 °F 74% 29.92 in 10.0 mi SSW 9.2 mph - N/A   Mostly Cloudy
8:37 PM 14.9 °F 4.0 °F 8.6 °F 76% 29.91 in 10.0 mi SSW 8.1 mph - N/A   Mostly Cloudy
8:57 PM 15.6 °F 2.5 °F 9.3 °F 76% 29.90 in 10.0 mi SW 11.5 mph 16.1 mph N/A   Scattered Clouds
9:17 PM 15.6 °F 2.5 °F 8.8 °F 74% 29.90 in 10.0 mi SSW 11.5 mph 20.7 mph N/A   Clear
9:37 PM 15.6 °F 3.2 °F 9.0 °F 75% 29.90 in 10.0 mi SSW 10.4 mph - N/A   Clear
9:57 PM 15.8 °F 2.7 °F 9.1 °F 75% 29.90 in 10.0 mi SSW 11.5 mph 19.6 mph N/A   Mostly Cloudy
10:17 PM 16.2 °F 2.5 °F 9.3 °F 74% 29.89 in 10.0 mi SSW 12.7 mph 18.4 mph N/A   Mostly Cloudy
10:37 PM 16.7 °F 3.2 °F 9.5 °F 73% 29.89 in 10.0 mi SSW 12.7 mph 18.4 mph N/A   Scattered Clouds
10:57 PM 16.7 °F 3.2 °F 9.5 °F 73% 29.88 in 10.0 mi SSW 12.7 mph 19.6 mph N/A   Scattered Clouds
11:18 PM 16.5 °F 4.3 °F 9.5 °F 74% 29.87 in 10.0 mi SSW 10.4 mph - N/A   Clear
11:37 PM 16.7 °F 3.2 °F 9.9 °F 74% 29.87 in 10.0 mi SSW 12.7 mph 16.1 mph N/A   Clear
11:57 PM 16.7 °F 7.2 °F 10.0 °F 75% 29.87 in 10.0 mi South 6.9 mph - N/A   Clear